Regional Weather Roundup
Issued by NWS Jackson, KY

Home | Current Version | Previous Version | Text Only | Print | Product List | Glossary Off
Versions: 1 2 3 4 5 6 7 8 9 10 11 12 13 14 15 16 17 18 19 20 21 22 23 24 25 26 27 28 29 30 31 32 33 34 35 36 37 38 39 40 41 42 43 44 45 46 47 48 49 50

000
ASUS43 KJKL 262010
RWRJKL

EAST KENTUCKY HOURLY WEATHER ROUNDUP
NATIONAL WEATHER SERVICE JACKSON KY
300 PM EST SUN FEB 26 2017

NOTE: "FAIR" INDICATES FEW OR NO CLOUDS BELOW 12,000 FEET WITH
NO SIGNIFICANT WEATHER AND/OR OBSTRUCTIONS TO VISIBILITY.

* THESE REPORTS ARE NOT UNDER NWS QUALITY CONTROL AND MAY NOT
  REPORT WEATHER SUCH AS PRECIPITATION AND FOG.

KYZ079-080-083-085-087-088-110-112-115-119-120-262100
...EASTERN KENTUCKY...

CITY           SKY/WX    TMP DP  RH WIND       PRES   REMARKS
JACKSON        SUNNY     46  15  28 VRB3      30.18F
LONDON         SUNNY     46  13  26 SW8       30.19F
SOMERSET*      SUNNY     46  14  27 S6        30.21S
MONTICELLO*    SUNNY     50  17  27 W13       30.20F
WILLIAMSBURG*  CLEAR     48  14  25 CALM      30.19F
MIDDLESBORO*   SUNNY     48  17  28 SW6       30.21S
HARLAN APT*    CLEAR     48  14  25 E3        30.18F
PIKE CO APT*     N/A     44  14  30 W3        30.18F
BIG SANDY APT* CLEAR     46  13  27 CALM      30.18F
MOREHEAD APT*  CLEAR     45  14  29 VRB6      30.20F
ASHLAND*       SUNNY     39  19  45 S7        30.18F WCI  34
$$

KYZ035-036-041-042-044-050-067-078-099-262100
...CENTRAL KENTUCKY...

CITY           SKY/WX    TMP DP  RH WIND       PRES   REMARKS
FLEMING/MASON* SUNNY     44  20  38 S9        30.19F
DANVILLE*      SUNNY     46  18  31 SW9       30.19S
LEXINGTON      SUNNY     48  13  24 S12       30.18F
FRANKFORT      SUNNY     48  13  24 VRB7      30.16F
LOUISVILLE     MOSUNNY   51  12  21 VRB5      30.16F
LEBANON*         N/A     48  14  25 S9        30.18F
GLASGOW*       SUNNY     51  16  25 SW3       30.18F
BOWLING GREEN  SUNNY     53  16  23 SW9       30.17F
$$

KYZ091>093-OHZ055-061-077-WVZ005-015-034-035-042-262100
...SOUTHERN OHIO/WEST VIRGINIA...

CITY           SKY/WX    TMP DP  RH WIND       PRES   REMARKS
COVINGTON      MOSUNNY   45  13  27 SW9G16    30.14F
COLUMBUS       MOSUNNY   42  19  39 S15       30.15F
DAYTON         PTSUNNY   43  17  35 SW15      30.13F
WILMINGTON     SUNNY     42  18  37 SW14      30.14F
HUNTINGTON     SUNNY     46  12  25 N3        30.18F
CHARLESTON     SUNNY     46  10  23 CALM      30.18F
PINEVILLE*     SUNNY     46   6  19 MISG      30.21S
BECKLEY        SUNNY     42  11  28 NW7       30.14S
BLUEFIELD      SUNNY     39  11  31 W10       30.14S WCI  32
LOGAN CO APT*    N/A     45  12  26 CALM      30.17R
$$

VAZ002-007-008-TNZ017-027-036-066-071-262100
...SOUTHWEST VIRGINIA/EAST TENNESSEE...

CITY           SKY/WX    TMP DP  RH WIND       PRES   REMARKS
WISE*          SUNNY     43  10  26 CALM      30.16S
JONESVILLE*      N/A     48  16  27 SW7       30.21F
ABINGDON*      SUNNY     46  17  31 W10       30.18S
BRISTOL        SUNNY     45  17  32 CALM      30.20F
MORRISTOWN*    CLEAR     46  16  29 SE6       30.19F
SEVIERVILLE*   CLEAR     48  16  27 VRB3      30.19F
KNOXVILLE      SUNNY     49  11  21 VRB3      30.19F
LAFOLLETTE*    CLEAR     50  16  25 VRB3      30.22F
OAK RIDGE      SUNNY     51  12  21 VRB3      30.22F
CROSSVILLE     SUNNY     47  15  27 VRB6      30.17F
NASHVILLE      PTSUNNY   54  15  21 SE12      30.16F
$$

...KEY TO REMARKS...
VSB - VISIBILITY IN MILES
WCI - WIND CHILL INDEX
HX  - HEAT INDEX

$$



USA.gov is the U.S. government's official web portal to all federal, state and local government web resources and services.